User: anonymous   Login
Location: Codford Saint Peter
(51.1597°N, 2.0531°W)
Time: 01:20:55
(UTC+00:00)
Language:

IRS-1A Rocket - Orbit

View from above orbital plane
View from above orbital plane
View from above satellite
View from above satellite

Ground track
Ground track

The orbit data is extracted from the following two-line orbital elements,

1 18961U 88021B   20334.63678215 -.00000144 +00000-0 -64996-4 0  9993
2 18961 099.2306 016.8801 0055174 007.6619 161.2820 14.00787376672009
Epoch (UTC): 29 November 2020 15:16:57
Eccentricity: 0.0055174
inclination: 99.2306°
perigee height: 851 km
apogee height: 931 km
right ascension of ascending node: 16.8801°
argument of perigee: 7.6619°
revolutions per day: 14.00787376
mean anomaly at epoch: 161.2820°
orbit number at epoch: 67200

The dashed part of the orbit path shows where the satellite is in the earth's shadow,  

DLR